Regional Weather Roundup
Issued by NWS Mt. Holly, NJ

Home | Current Version | Previous Version | Text Only | Print | Product List | Glossary On
Versions: 1 2 3 4 5 6 7 8 9 10 11 12 13 14 15 16 17 18 19 20 21 22 23 24 25 26 27 28 29 30 31 32 33 34 35 36 37 38 39 40 41 42 43 44 45 46 47 48 49 50
000
ASUS41 KPHI 310010
RWRPHI

REGIONAL WEATHER ROUNDUP
NATIONAL WEATHER SERVICE MOUNT HOLLY NJ
800 PM EDT WED JUL 30 2014

NOTE:  "FAIR" INDICATES FEW OR NO CLOUDS BELOW 12,000 FEET WITH NO
SIGNIFICANT WEATHER AND/OR OBSTRUCTIONS TO VISIBILITY.

 * = STATION DOES NOT REPORT PRECIPITATION (E.G. RAIN, SNOW, ETC.)
        OR FOG.

NJZ015>026-310100-
SOUTHERN NEW JERSEY

CITY           SKY/WX    TMP DP  RH WIND       PRES   REMARKS
POMONA         CLEAR     73  54  51 SW7       30.04R
6HR MIN TEMP:  73; 6HR MAX TEMP:  80;

RIO GRANDE*    CLEAR     70  55  60 S7        30.07R
MILLVILLE      CLEAR     71  57  61 CALM      30.05R
WRIGHTSTOWN    CLEAR     71  59  66 SW3       30.02R
MOUNT HOLLY    CLEAR     72  56  57 CALM      30.03R
TRENTON        PTCLDY    75  53  46 CALM      30.02R
6HR MIN TEMP:  75; 6HR MAX TEMP:  81;


$$
NJZ001>014-310100-
NORTHERN NEW JERSEY

CITY           SKY/WX    TMP DP  RH WIND       PRES   REMARKS
SUSSEX         CLEAR     72  58  61 CALM      30.02R
ANDOVER*         N/A     68  60  75 CALM      30.04R
MORRISTOWN     PTCLDY    72  57  60 CALM      30.03R
NEWARK         PTCLDY    77  50  38 W10       30.02R
TETERBORO      CLEAR     77  50  38 W7        30.01R
CALDWELL       CLEAR     74  52  46 CALM      30.03R
SOMERVILLE     CLEAR     69  56  62 CALM      30.01R
ALLAIRE*       CLEAR     72  57  60 SE7       30.04R
TOMS RIVER*    CLEAR     72  61  68 CALM      30.04R

$$
PAZ043-044-047-054-055-060>062-066>071-310100-
EASTERN PENNSYLVANIA

CITY           SKY/WX    TMP DP  RH WIND       PRES   REMARKS
PHILADELPHIA   PTCLDY    76  53  44 S8        30.04R
6HR MIN TEMP:  76; 6HR MAX TEMP:  80;

NORTH PHILA    CLEAR     75  52  44 W6        30.04R
BLUE BELL      CLEAR     70  59  68 CALM      30.03S
DOYLESTOWN     CLEAR     72  53  51 SW5       30.03R
QUAKERTOWN*    CLEAR     72  57  60 CALM      30.05R
POTTSTOWN      CLEAR     72  54  53 CALM      30.06R
LANCASTER      CLEAR     72  53  51 S6        30.04R
COATESVILLE    CLEAR     70  55  60 W3        30.06R
READING        CLEAR     74  54  49 S5        30.03R
6HR MIN TEMP:  74; 6HR MAX TEMP:  78;

ALLENTOWN      CLEAR     70  54  56 SW5       30.03R
6HR MIN TEMP:  70; 6HR MAX TEMP:  78;

MOUNT POCONO   CLEAR     65  52  62 SW5       30.07R
6HR MIN TEMP:  65; 6HR MAX TEMP:  72; 6HR PCP: TRACE;

HAZLETON       CLEAR     66  54  63 CALM      30.09R
WILKES BARRE   PTCLDY    72  51  47 SW5       30.03R

$$
DEZALL-MDZ008-012-015-019-020-310100-
DELAWARE AND EASTERN MARYLAND

CITY           SKY/WX    TMP DP  RH WIND       PRES   REMARKS
WILMINGTON     CLEAR     74  53  48 SW6       30.05R
6HR MIN TEMP:  74; 6HR MAX TEMP:  79;

DOVER          CLEAR     72  54  52 SW3       30.04R
GEORGETOWN     CLEAR     71  59  65 MISG      30.06R
6HR MIN TEMP:  71; 6HR MAX TEMP:  79;

EASTON         CLEAR     75  57  53 CALM      30.09R
PATUXENT       CLEAR     73  56  54 E3        30.05R
OCEAN CITY     CLEAR     72  63  73 SE5       30.05S
WALLOPS ISLAND CLEAR     75  56  51 CALM      30.07R
CAMBRIDGE      CLEAR     72  57  60 CALM      30.05S
SALISBURY      CLEAR     74  54  49 CALM      30.06R

$$
PAZ001-021-NYZ056-072-MDZ011-DCZ001-310100-
OTHER NEARBY LOCATIONS

CITY           SKY/WX    TMP DP  RH WIND       PRES   REMARKS
HARRISBURG     PTCLDY    74  55  51 SW6       30.02R
STATE COLLEGE  MOCLDY    59  57  94 CALM      30.08R
WILLIAMSPORT   LGT RAIN  63  58  83 W8        30.03S
BINGHAMTON     MOCLDY    64  56  75 SW7       30.03R
NEW YORK CITY  CLEAR     73  55  53 VRB3      30.05R
BALTIMORE      PTCLDY    73  56  54 SE5       30.04R
WASHINGTON DC  PTCLDY    76  53  44 S9        30.05R

$$



USA.gov is the U.S. government's official web portal to all federal, state and local government web resources and services.